This is the latest recevied weather packets stored in our database for station/object SP3WRO-13. If no packets are shown the sender has not sent any weather packets the latest 10 day(s).
| Time | Temp. | Humidity | Pressure | Rain* | Wind** | Luminosity | Snow |
|---|---|---|---|---|---|---|---|
| 1777458539 | 10° C | 32% | 1026.9 hPa | - | - | 327 W/m² | - |
| 1777457639 | 10° C | 32% | 1026.8 hPa | - | - | 901 W/m² | - |
| 1777456739 | 9.44° C | 34% | 1026.9 hPa | - | - | 798 W/m² | - |
| 1777455839 | 10° C | 34% | 1026.7 hPa | - | - | 783 W/m² | - |
| 1777454939 | 10° C | 35% | 1026.9 hPa | - | - | 308 W/m² | - |
| 1777454039 | 9.44° C | 34% | 1026.9 hPa | - | - | 786 W/m² | - |
| 1777453139 | 9.44° C | 36% | 1026.8 hPa | - | - | 715 W/m² | - |
| 1777452239 | 7.78° C | 38% | 1027 hPa | - | - | 112 W/m² | - |
| 1777451339 | 8.89° C | 36% | 1027.1 hPa | - | - | 644 W/m² | - |
| 1777450439 | 8.89° C | 35% | 1026.9 hPa | - | - | 92 W/m² | - |
| 1777449538 | 8.89° C | 34% | 1026.8 hPa | - | - | 540 W/m² | - |
| 1777448638 | 8.89° C | 34% | 1026.8 hPa | - | - | 509 W/m² | - |
| 1777447738 | 8.89° C | 34% | 1026.8 hPa | - | - | 470 W/m² | - |
| 1777446838 | 8.33° C | 37% | 1026.8 hPa | - | - | 435 W/m² | - |
| 1777445938 | 8.33° C | 41% | 1026.8 hPa | - | - | 391 W/m² | - |
| 1777445038 | 7.78° C | 42% | 1026.9 hPa | - | - | 353 W/m² | - |
| 1777444138 | 7.22° C | 47% | 1026.6 hPa | - | - | 310 W/m² | - |
| 1777443238 | 6.67° C | 50% | 1026.7 hPa | - | - | 266 W/m² | - |
| 1777442337 | 6.11° C | 54% | 1026.6 hPa | - | - | 222 W/m² | - |
| 1777441437 | 5° C | 57% | 1026.4 hPa | - | - | 180 W/m² | - |
| 1777440537 | 4.44° C | 56% | 1026.2 hPa | - | - | 139 W/m² | - |
| 1777439634 | 3.89° C | 60% | 1026.3 hPa | - | - | 103 W/m² | - |
| 1777438734 | 2.78° C | 59% | 1026.3 hPa | - | - | 73 W/m² | - |
| 1777437834 | 1.67° C | 65% | 1026.2 hPa | - | - | 52 W/m² | - |
| 1777436934 | 0.56° C | 68% | 1026.1 hPa | - | - | 58 W/m² | - |
* Rain since midnight (hover to see other rain measurements)
** Current wind speed in m/s (hover to see current wind gust speed)